Regional Weather Roundup
Issued by NWS

Home | Current Version | Previous Version | Graphics & Text | Print | Product List | Glossary Off
Versions: 1 2 3 4 5 6 7 8 9 10 11 12 13 14 15 16 17 18 19 20 21 22 23 24 25 26 27 28 29 30 31 32 33 34 35 36 37 38 39 40 41 42 43 44 45 46 47 48 49 50

000
ASUS43 KMKX 221021
RWRWI

WISCONSIN REGIONAL WEATHER ROUNDUP
NATIONAL WEATHER SERVICE MILWAUKEE/SULLIVAN WI
500 AM CDT FRI AUG 22 2014

NOTE: "FAIR" INDICATES FEW OR NO CLOUDS BELOW 12,000 FEET WITH NO
SIGNIFICANT WEATHER AND/OR OBSTRUCTIONS TO VISIBILITY.

WIZ001-002-006>008-014>016-023>028-221100-
NORTHWEST WISCONSIN

CITY           SKY/WX    TMP DP  RH WIND       PRES   REMARKS
SUPERIOR ARPT  RAIN      60  60 100 NE12      29.93R
ASHLAND        CLOUDY    66  65  96 NE3       29.92R FOG
HAYWARD        CLOUDY    68  68 100 NE3       29.90R FOG
SIREN          CLOUDY    65  64  97 N6        29.90R FOG
RICE LAKE      CLOUDY    71  69  94 CALM      29.90R FOG
LADYSMITH      CLOUDY    69  67  95 E5        29.91R FOG
EAU CLAIRE     CLOUDY    71  70  96 CALM      29.87R
MENOMONIE      CLOUDY    71  70  98 CALM      29.88R FOG
NEW RICHMOND   CLOUDY    71  71 100 NW3       29.90R FOG
OSCEOLA        CLOUDY    68  68 100 NW6       29.93R FOG
$$

WIZ003>005-009-010-017-018-221100-
NORTH CENTRAL WISCONSIN

CITY           SKY/WX    TMP DP  RH WIND       PRES   REMARKS
WOODRUFF       CLOUDY    64  62  91 SE5       29.94R FOG
RHINELANDER    FOG       63  63 100 E7        29.95R VSB 1/2
EAGLE RIVER    CLOUDY    63  63 100 E5        29.95R FOG
LAND O LAKES   CLOUDY    64  63  98 CALM      29.96R
PHILLIPS       CLOUDY    65  65 100 E3        29.92R FOG
TOMAHAWK       FOG       64  63  96 CALM      29.94R VSB 1/2
MEDFORD        FOG       65  65 100 SE5       29.92R VSB 1/2
MERRILL        FOG       65  65 100 CALM      29.93R VSB 1/2
$$

WIZ029-030-035-036-043>047-221100-
CENTRAL WISCONSIN

CITY           SKY/WX    TMP DP  RH WIND       PRES   REMARKS
WAUSAU         FOG       65  65 100 E5        29.91R VSB 1/4
MOSINEE        FOG       64  64 100 CALM      29.93R VSB 1/4
MARSHFIELD     FOG       70  68  93 SE3       29.92R VSB 1/4
STEVENS POINT  FOG       65  65 100 CALM      29.93R VSB 1/4
WAUPACA        FOG       71  69  95 CALM      29.92R VSB 1/4
WAUTOMA        FOG       71  71 100 CALM      29.92R VSB<1/4
WISC RAPIDS    CLOUDY    70  70 100 SE5       29.92R FOG
CAMP DOUGLAS   PTCLDY    68  68 100 E5        29.90S FOG
$$

WIZ011>013-019>022-031-037>040-048>050-221100-
NORTHEAST WISCONSIN

CITY           SKY/WX    TMP DP  RH WIND       PRES   REMARKS
ANTIGO         FOG       63  63 100 SE5       29.95R VSB 1/2
STURGEON BAY   CLOUDY    66  63  88 S5        29.94R
GREEN BAY      CLOUDY    66  66 100 CALM      29.92R FOG
MANITOWOC      CLOUDY    66  66 100 SE5       29.93R FOG
APPLETON       CLOUDY    66  64  94 E5        29.92R FOG
CLINTONVILLE   FOG       64  64 100 CALM      29.92R VSB 1/4
OSHKOSH        CLOUDY    70  69  97 S9        29.92R FOG
$$

WIZ032>034-041-042-053>061-221100-
SOUTHWEST WISCONSIN

CITY           SKY/WX    TMP DP  RH WIND       PRES   REMARKS
LA CROSSE      CLOUDY    74  71  91 S6        29.87R
SPARTA         PTCLDY    65  64  97 CALM      29.90R
VIROQUA        PTSUNNY   70  70 100 CALM      29.91S
BOSCOBEL       CLOUDY    69  67  93 CALM      29.89S FOG
PRAIRIE DU CHI CLOUDY    71  69  94 E3        29.87F FOG
PLATTEVILLE    CLOUDY    71  69  96 E6        29.91F VSB 1/4
$$

WIZ056-057-062-063-064-067-068-221100-
SOUTH CENTRAL WISCONSIN

CITY           SKY/WX    TMP DP  RH WIND       PRES   REMARKS
BARABOO/DELLS  CLOUDY    70  69  95 CALM      29.92R FOG
LONE ROCK      MOCLDY    72  67  84 E3        29.90S HAZE
WATERTOWN      FOG       71  71 100 CALM      29.92R VSB 1/2
MADISON        CLOUDY    73  71  93 SE5       29.91R FOG
MIDDLETON      CLOUDY    71  71 100 CALM      29.92S
MONROE         FOG       72  72 100 SE5       29.91F VSB 1/4
JANESVILLE     MOCLDY    73  72  94 CALM      29.90F FOG
$$

WIZ051-052-058>065-066-070>072-221100-
SOUTHEAST WISCONSIN

CITY           SKY/WX    TMP DP  RH WIND       PRES   REMARKS
MILWAUKEE      FOG       71  69  93 SW5       29.94R VSB 1/4
WAUKESHA       CLOUDY    68  68 100 CALM      29.95R FOG
MILWAUKEE/TIMM CLOUDY    70  66  88 SW3       29.94R FOG
RACINE         FOG       70  69  97 CALM      29.93R VSB 1
BURLINGTON     FOG       69  69  99 CALM      29.93R VSB 1/2
KENOSHA        FOG       70  70 100 CALM      29.92R VSB 1/4
FOND DU LAC    CLOUDY    69  67  93 S6        29.93R
SHEBOYGAN      FOG       67  66  97 CALM      29.93R VSB 1/4
WEST BEND      FOG       68  64  88 CALM      29.94R VSB 1
JUNEAU         HAZE      70  46  42 CALM      29.95R VSB<1/4
$$

LSZ147-162-221100-
LAKE SUPERIOR

STATION/POSITION TIME  TEMP    WIND        PRES    WAVE
                       AIR SEA DIR/SP/G            HT/PER
                 (UTC) (F)     (DEG/KT/KT) (MB)    (FT/S)
W MID LAKE BUOY  0950   57 59   50/ 14/ 16 1013.2R   2/ 4
DEVILS ISLAND    1000   59      70/ 12/ 14 1013.4R
PORT WING        0940   59      40/ 11/ 14 1013.2R
SAXON HARBOR     0900   65        CALM     1012.2S
$$

LMZ867-665-643>646-221100-
LAKE MICHIGAN

STATION/POSITION TIME  TEMP    WIND        PRES    WAVE
                       AIR SEA DIR/SP/G            HT/PER
                 (UTC) (F)     (DEG/KT/KT) (MB)    (FT/S)
N MID LAKE BUOY  0950   65 64  120/  6/  8 1012.8F   0
NORTHPORT PIER   0900   65     110/  5/  7 1013.2F
SISTER BAY       0811   64        CALM       N/A
KEWAUNEE LAKESHO 0900   66     140/  3/  5 1011.7F
SHEBOYGAN LAKESH 1000   67 65  170/  3/  4 1013.5R
ATWATER BUOY     1000   70     180/  6/  8 1014.5R
MILWAUKEE LAKESH 1000   69     160/  4/  4   N/A
S MID LAKE BUOY  0950   69 69  170/  8/ 10 1013.1R   0
KENOSHA   LAKESH 1000   71     340/  2/  3 1012.5F
$$

TC  - TEMPERATURE IN CELSIUS
VSB - VISIBILITY IN STATUTE MILES
WCI - WIND CHILL INDEX
HX  - HEAT INDEX




USA.gov is the U.S. government's official web portal to all federal, state and local government web resources and services.